Terminal Aerodrome Forecast
Issued by NWS Dodge City, KS

Home | Current Version | Previous Version | Text Only | Print | Product List | Glossary On
Versions: 1 2 3 4 5 6 7 8 9 10 11 12 13 14 15 16 17 18 19 20 21 22 23 24 25 26 27 28 29 30
000
FTUS43 KDDC 291015 AAA
TAFDDC
TAF AMD
KDDC 291015Z 2910/3006 21012KT P6SM SKC WS015/21045KT
     FM291300 35026G36KT P6SM FEW110
     FM292000 36014G24KT P6SM SKC
     FM300100 07006KT P6SM SKC=

USA.gov is the U.S. government's official web portal to all federal, state and local government web resources and services.